Regional Weather Roundup
Issued by NWS Albany, NY

Home | Current Version | Previous Version | Graphics & Text | Print | Product List | Glossary Off
Versions: 1 2 3 4 5 6 7 8 9 10 11 12 13 14 15 16 17 18 19 20 21 22 23 24 25 26 27 28 29 30 31 32 33 34 35 36 37 38 39 40 41 42 43 44 45 46 47 48 49 50

000
ASUS41 KALY 140710
RWRALY

NEW YORK STATE HOURLY WEATHER ROUNDUP
NATIONAL WEATHER SERVICE ALBANY NY
200 AM EST SUN FEB 14 2016

NOTE: "FAIR" INDICATES FEW OR NO CLOUDS BELOW 12,000 FEET WITH NO
SIGNIFICANT WEATHER AND/OR NO OBSTRUCTIONS TO VISIBILITY.

NYZ032-033-038>043-046>054-057>066-NYZ062>081-140800-
EAST


CITY           SKY/WX    TMP DP  RH WIND       PRES   REMARKS
ALBANY         CLEAR    -10 -26  45 NW14      30.38R WCI -31
GLENS FALLS    CLEAR    -13 -29  44 NW12      30.37R WCI -33
POUGHKEEPSIE   CLEAR      1 -18  40 N8        30.34R WCI -13
NEWBURGH       CLEAR     -2 -15  55 NW12G25   30.31R WCI -20
MONTGOMERY     CLEAR     -1 -17  46 NW18G25   30.31R WCI -22
WHITE PLAINS   PTCLDY     2 -13  49 NW22G30   30.27R WCI -20
ISLIP          CLOUDY     5 -10  50 NW13G23   30.29R WCI -12
NEW YORK CITY  PTCLDY     7  -8  50 NW23      30.34R WCI -14
CENTRAL PARK   CLEAR      5 -15  39 NW10G24   30.35R WCI -10
$$

NYZ005>009-017-018-044>046-055-056-140800-
CENTRAL


CITY           SKY/WX    TMP DP  RH WIND       PRES   REMARKS
FULTON         LGT SNOW -12 -19  71 NE5       30.46R VSB 3/4 WCI -24
SYRACUSE       LGT SNOW -16 -21  78 N7        30.47R WCI -32
ROME           CLEAR    -18 -28  60 W7        30.46R WCI -35
ELMIRA         PTCLDY    -2 -13  59 NE3       30.36R
BINGHAMTON     CLOUDY   -10 -16  74 N10       30.23R HAZE    WCI -29
MONTICELLO     CLEAR     -8 -17  65 NW14G25   30.21R WCI -28
$$

NYZ026>034-041>043-140800-
NORTH


CITY           SKY/WX    TMP DP  RH WIND       PRES   REMARKS
WATERTOWN      CLOUDY   -31  32 100 CALM      30.49R
FORT DRUM      NOT AVBL
MASSENA        PTCLDY   -17 -28  57 W7        30.46R WCI -33
SARANAC LAKE   PTCLDY   -26 -31  77 SW5       30.17R WCI -40
PLATTSBURGH    CLEAR    -16 -29  52 W9        30.38R WCI -35
$$

NYZ001>004-010>016-019>021-140800-
WEST


CITY           SKY/WX    TMP DP  RH WIND       PRES   REMARKS
NIAGARA FALLS  LGT SNOW  -3 -10  72 SE3       30.49R
BUFFALO        PTCLDY    -6 -12  75 N5        30.47R WCI -17
DUNKIRK        CLOUDY     4  -4  69 N10       30.45S WCI -11
JAMESTOWN      MOCLDY     0  -6  78 N7        30.28S WCI -13
WELLSVILLE     CLEAR     -7 -14  71 N15       30.24R WCI -28
ROCHESTER      LGT SNOW  -5 -11  75 NW8       30.47R WCI -20
PENN YAN       PTCLDY    -5 -13  68 NW8       30.38R WCI -20
$$

             KEY
       WCI = WIND CHILL INDEX
       VSB = VISIBILITY
       HX  = HEAT INDEX
$$



USA.gov is the U.S. government's official web portal to all federal, state and local government web resources and services.